Tracking 26922 objects as of 31-Jan-2023
HD Live streaming from Space Station
objects crossing your sky now

CZ-6A DEB

Track CZ-6A DEB now!
10-day predictions


NORAD ID: 54352
Int'l Code: 2022-151CX
Perigee: 615.9 km
Apogee: 902.7 km
Inclination: 99.1 °
Period: 99.9 minutes
Semi major axis: 7130 km
RCS: Unknown
Launch date: November 11, 2022
Source: People's Republic of China (PRC)
Launch site: Taiyaun Space Center, China (TSC)

Note: This is SATELLITE DEBRIS
Your satellite tracking list
Your tracking list is empty




NASA's NSSDC Master Catalog

Two Line Element Set (TLE):
1 54352U 22151CX  23031.46200297  .00006931  00000-0  16726-2 0  9992
2 54352  99.0999  47.8286 0201127  76.1578 286.1897 14.41914153 11037
Source of the keplerian elements: AFSPC